Location: Kumla
(59.1265°N, 15.1401°E)
Time: 03:38:11
(UTC+01:00)

Transit 2A - Pass Details

Date: 11 December 2023
Orbit: 600 x 953 km, 66.7° (Epoch: 24 February)

Event Time Altitude Azimuth Distance (km) Brightness Sun altitude
Rises 15:55:20 0° 239° (WSW) 3,063 11.7 -6.0°
Reaches altitude 10° 15:57:46 10° 243° (WSW) 2,099 10.0 -6.2°
Maximum altitude 16:02:26 65° 325° (NW) 701 5.9 -6.7°
Drops below altitude 10° 16:06:50 10° 49° (NE) 1,976 7.5 -7.2°
Enters shadow 16:07:03 - 49° (NE) 2,063 7.6 -7.2°
Sets 16:09:04 0° 52° (NE) 2,868 - -7.4°
